Weather History for Hoquiam, WA

Change the Weather History Date:

Wednesday, May 13, 2009

  Actual Average Record
Temperature  
Mean Temperature 47 °F 53 °F  
Max Temperature 51 °F 59 °F 88 °F (1973)
Min Temperature 43 °F 46 °F 33 °F (1955)
Degree Days  
Heating Degree Days 18 12  
Month to date heating degree days 172  
Cooling Degree Days 0 0  
Month to date cooling degree days 0  
Year to date cooling degree days 0  
Moisture  
Dew Point 44 °F    
Average Humidity 91    
Maximum Humidity 100    
Minimum Humidity 71    
Precipitation  
Precipitation 0.92 in 0.10 in 0.93 in (2009)
Month to date precipitation 1.53  
Year to date precipitation 31.16  
Sea Level Pressure  
Sea Level Pressure 29.92 in    
Wind  
Wind Speed 10 mph (ENE)    
Max Wind Speed 21 mph    
Max Gust Speed 26 mph    
Visibility 6 miles    
Events Rain    
T = Trace of Precipitation, MM = Missing Value Source: NWS Daily Summary

Daily Weather History Graph

Daily Weather History Graph

Search for Another Location

Airport:

Trip Planner

Search our weather history database for the weather conditions in past years. The results will help you decide how hot, cold, wet, or windy it might be!

Date:

Astronomy

May. 13, 2009 Rise Set
Actual Time 5:42 AM PDT 8:42 PM PDT
Civil Twilight 5:06 AM PDT 9:18 PM PDT
Nautical Twilight 4:20 AM PDT 10:04 PM PDT
Astronomical Twilight 3:25 AM PDT 11:00 PM PDT
Moon 12:32 AM PDT (5/13) 8:50 AM PDT (5/13)
Length of Visible Light 16h 11m
Length of Day
14h 59m
Waning Gibbous, 81% of the Moon is Illuminated
May 13
Waning Gibbous
May 17
Last Quarter
May 24
New
May 30
First Quarter
Jun 7
Full

Hourly Weather History & Observations

Time (PDT) Temp. Windchill Dew Point Humidity Pressure Visibility Wind Dir Wind Speed Gust Speed Precip Events Conditions
12:08 AM 48.2 °F - 39.2 °F 71% 30.23 in 10.0 mi South 8.1 mph - N/A   Overcast
12:53 AM 46.9 °F - 39.9 °F 77% 30.22 in 10.0 mi South 5.8 mph - N/A   Overcast
1:53 AM 46.9 °F - 39.9 °F 77% 30.23 in 10.0 mi SE 5.8 mph - N/A   Overcast
2:53 AM 44.1 °F 41.5 °F 39.9 °F 85% 30.22 in 10.0 mi East 4.6 mph - N/A   Clear
3:53 AM 44.1 °F 40.1 °F 39.0 °F 82% 30.21 in 10.0 mi NE 6.9 mph - N/A   Clear
4:53 AM 43.0 °F 38.2 °F 39.0 °F 86% 30.18 in 10.0 mi East 8.1 mph - N/A   Clear
5:53 AM 43.0 °F 38.8 °F 39.0 °F 86% 30.16 in 10.0 mi ENE 6.9 mph - N/A   Clear
6:53 AM 43.0 °F 38.2 °F 39.0 °F 86% 30.14 in 10.0 mi ENE 8.1 mph - N/A   Mostly Cloudy
7:53 AM 44.1 °F 38.6 °F 39.0 °F 82% 30.12 in 10.0 mi ENE 10.4 mph - N/A   Overcast
8:53 AM 45.0 °F 39.3 °F 39.9 °F 82% 30.10 in 10.0 mi ENE 11.5 mph - N/A   Overcast
9:53 AM 45.0 °F 39.7 °F 41.0 °F 86% 30.08 in 10.0 mi ENE 10.4 mph - 0.00 in Rain Light Rain
10:34 AM 46.4 °F 42.4 °F 42.8 °F 87% 30.06 in 9.0 mi East 8.1 mph - 0.03 in Rain Light Rain
10:53 AM 46.0 °F 40.2 °F 41.0 °F 83% 30.06 in 9.0 mi East 12.7 mph - 0.04 in Rain Light Rain
11:27 AM 44.6 °F 39.7 °F 39.2 °F 81% 30.04 in 8.0 mi East 9.2 mph - 0.01 in Rain Light Rain
11:43 AM 44.6 °F 38.8 °F 41.0 °F 87% 30.04 in 6.0 mi East 11.5 mph - 0.04 in Rain Rain
11:53 AM 45.0 °F 38.5 °F 41.0 °F 86% 30.04 in 6.0 mi East 13.8 mph - 0.05 in Rain Rain
12:53 PM 44.1 °F 37.4 °F 39.9 °F 85% 30.01 in 8.0 mi East 13.8 mph - 0.06 in Rain Light Rain
1:37 PM 44.6 °F 39.7 °F 42.8 °F 93% 29.98 in 6.0 mi ENE 9.2 mph - 0.05 in Rain Light Rain
1:53 PM 45.0 °F 38.9 °F 41.0 °F 86% 29.98 in 7.0 mi ENE 12.7 mph - 0.06 in Rain Light Rain
2:00 PM 44.6 °F 38.4 °F 42.8 °F 93% 29.96 in 6.0 mi ENE 12.7 mph - 0.01 in Rain Light Rain
2:53 PM 45.0 °F 38.5 °F 42.1 °F 90% 29.94 in 9.0 mi ENE 13.8 mph - 0.02 in Rain Light Rain
3:53 PM 46.0 °F 41.0 °F 43.0 °F 89% 29.91 in 3.0 mi ENE 10.4 mph - 0.04 in Rain Light Rain
4:27 PM 46.4 °F 41.5 °F 44.6 °F 93% 29.87 in 6.0 mi ENE 10.4 mph - 0.02 in Rain Light Rain
4:39 PM 46.4 °F 41.1 °F 44.6 °F 93% 29.87 in 4.0 mi NE 11.5 mph - 0.03 in Rain Light Rain
4:53 PM 46.0 °F 40.6 °F 44.1 °F 93% 29.87 in 4.0 mi NE 11.5 mph - 0.05 in Rain Light Rain
5:14 PM 46.4 °F 41.1 °F 44.6 °F 93% 29.85 in 3.0 mi NE 11.5 mph - 0.02 in Rain Rain
5:44 PM 46.4 °F 41.9 °F 44.6 °F 93% 29.84 in 2.5 mi NE 9.2 mph - 0.05 in Rain Light Rain
5:53 PM 46.0 °F 41.0 °F 44.1 °F 93% 29.84 in 1.8 mi ENE 10.4 mph - 0.08 in Rain Rain
6:09 PM 46.4 °F 41.1 °F 44.6 °F 93% 29.82 in 2.5 mi ENE 11.5 mph - 0.04 in Rain Rain
6:16 PM 46.4 °F 40.1 °F 44.6 °F 93% 29.81 in 3.0 mi East 15.0 mph - 0.05 in Rain Rain
6:40 PM 46.4 °F 41.1 °F 46.4 °F 100% 29.80 in 4.0 mi ENE 11.5 mph - 0.07 in Rain Light Rain
6:53 PM 46.9 °F - 45.0 °F 93% 29.80 in 6.0 mi ENE 11.5 mph - 0.08 in Rain Light Rain
7:11 PM 46.4 °F 40.7 °F 46.4 °F 100% 29.78 in 1.8 mi ENE 12.7 mph - 0.01 in Rain Light Rain
7:24 PM 46.4 °F 41.9 °F 46.4 °F 100% 29.77 in 1.5 mi ENE 9.2 mph - 0.04 in Rain Rain
7:35 PM 46.4 °F 41.1 °F 44.6 °F 93% 29.77 in 1.2 mi ENE 11.5 mph - 0.08 in Rain Heavy Rain
7:50 PM 46.4 °F 41.5 °F 46.4 °F 100% 29.76 in 2.5 mi ENE 10.4 mph - 0.11 in Rain Light Rain
7:53 PM 46.9 °F - 46.0 °F 97% 29.77 in 2.5 mi ENE 11.5 mph - 0.12 in Rain Light Rain
7:57 PM 46.4 °F 41.1 °F 46.4 °F 100% 29.76 in 2.5 mi ENE 11.5 mph - 0.00 in Rain Rain
8:04 PM 46.4 °F 42.4 °F 46.4 °F 100% 29.75 in 1.5 mi ENE 8.1 mph - 0.02 in Rain Rain
8:33 PM 46.4 °F 41.5 °F 46.4 °F 100% 29.74 in 2.5 mi ENE 10.4 mph - 0.11 in Rain Rain
8:53 PM 46.0 °F 41.0 °F 45.0 °F 96% 29.75 in 2.0 mi NE 10.4 mph - 0.16 in Rain Rain
9:33 PM 46.4 °F 41.9 °F 46.4 °F 100% 29.72 in 2.5 mi NE 9.2 mph - 0.10 in Rain Light Rain
9:53 PM 46.9 °F - 46.0 °F 97% 29.73 in 2.5 mi NNE 8.1 mph 17.3 mph 0.13 in Rain Light Rain
10:27 PM 51.8 °F - 50.0 °F 94% 29.71 in 4.0 mi South 10.4 mph 16.1 mph 0.02 in   Overcast
10:53 PM 51.1 °F - 51.1 °F 100% 29.73 in 4.0 mi South 13.8 mph - 0.02 in   Overcast
11:10 PM 51.8 °F - 50.0 °F 94% 29.71 in 2.5 mi South 15.0 mph - 0.00 in Rain Light Rain
11:37 PM 51.8 °F - 50.0 °F 94% 29.72 in 3.0 mi SSW 20.7 mph 25.3 mph 0.01 in Rain Light Rain
11:53 PM 50.0 °F - 48.9 °F 96% 29.73 in 8.0 mi SSW 20.7 mph 26.5 mph 0.01 in   Overcast